Location: Nebraska Star Party
(42.6000°N, 100.8833°W)
Time: 05:42:42
(UTC-05:00)

Amateur Radio Satellites - All Passes

Search period start: 24 July 2016 05:12
Search period end: 25 July 2016 05:12
Location: Nebraska Star Party, 42.6000°N, 100.8833°W

Satellite Date Start Highest point End Downlink Frequencies (MHz)
Time Altitude Azimuth
HORYU 2 24 Jul 05:31:00 05:32:48 12° 90° (E) 05:34:33 437.375
ITAMSAT 1 24 Jul 05:31:45 05:36:35 41° 292° (WNW) 05:41:25 435.822/435.867
CUBESAT XI-V 24 Jul 05:32:12 05:36:22 34° 69° (ENE) 05:40:32 437.345
ISS 24 Jul 05:32:34 05:35:48 60° 31° (NNE) 05:39:02 145.825
KKS-1 24 Jul 05:52:26 05:55:34 19° 267° (W) 05:58:45 437.445
MOZHAYETS 4 24 Jul 06:01:15 06:04:12 17° 269° (W) 06:07:10
RS-15 24 Jul 06:14:23 06:18:46 13° 93° (E) 06:23:12 29.354- 29.394
AIST 2 24 Jul 06:15:25 06:17:42 14° 38° (NE) 06:20:00 435.215
DANDE 24 Jul 06:20:58 06:27:01 60° 281° (W) 06:31:33 436.750
BEESAT 2 24 Jul 06:21:51 06:25:32 36° 244° (WSW) 06:29:13 435.950
BEESAT 3 24 Jul 06:23:38 06:26:29 19° 248° (WSW) 06:29:19 437.485
Cosmos 2499 24 Jul 06:24:03 06:28:44 17° 284° (WNW) 06:33:15 435.465 / 435.565
CUSAT 1 24 Jul 06:36:04 06:38:03 13° 286° (WNW) 06:39:51 437.405
PCSat 24 Jul 06:42:43 06:48:05 64° 244° (WSW) 06:53:25 145.827
STARS 24 Jul 06:42:55 06:44:16 11° 271° (W) 06:45:37 437.465
CUTE-I 24 Jul 06:46:10 06:48:42 13° 89° (E) 06:51:13 437.470
NOAA 18 24 Jul 06:51:53 06:55:07 16° 90° (E) 06:58:20 137.9125
AO-7 24 Jul 06:54:52 07:02:35 43° 300° (WNW) 07:10:14 29.400- 29.500
HORYU 2 24 Jul 07:05:19 07:09:48 66° 286° (WNW) 07:14:13 437.375
ISS 24 Jul 07:09:44 07:11:56 17° 227° (SW) 07:14:08 145.825
CUBESAT XI-V 24 Jul 07:10:01 07:13:47 25° 266° (W) 07:17:35 437.345
STRAND 1 24 Jul 07:13:31 07:17:52 28° 66° (ENE) 07:22:13 437.568
NOAA 15 24 Jul 07:16:14 07:21:00 34° 97° (E) 07:25:46 137.62
LilacSat-2 24 Jul 07:23:16 07:26:32 26° 95° (E) 07:29:47 437.200
GOMX 1 24 Jul 07:28:59 07:33:18 29° 95° (E) 07:37:48 467.674
O/OREOS (USA 219) 24 Jul 07:30:51 07:35:01 34° 60° (ENE) 07:39:10 437.305
DOVE 4 24 Jul 07:40:25 07:43:56 18° 91° (E) 07:47:31 437.250
BRITE-PL 24 Jul 07:46:33 07:51:15 87° 99° (E) 07:56:21 437.365/2234.400
AIST 2 24 Jul 07:52:35 07:56:46 85° 240° (WSW) 08:00:56 435.215
Cubesat XI-IV 24 Jul 07:59:10 08:04:30 63° 102° (ESE) 08:09:47 437.490
RS-15 24 Jul 08:17:16 08:28:27 64° 114° (ESE) 08:40:15 29.354- 29.394
CINEMA 3 24 Jul 08:18:36 08:20:49 13° 88° (E) 08:23:02 145.822/145.860
HO-68 24 Jul 08:20:04 08:24:13 16° 88° (E) 08:28:22 435.675
CUTE-I 24 Jul 08:23:59 08:29:21 79° 286° (WNW) 08:34:40 437.470
PRISM 24 Jul 08:25:30 08:28:05 17° 64° (ENE) 08:30:41 437.425
NOAA 18 24 Jul 08:30:46 08:36:20 73° 287° (WNW) 08:41:50 137.9125
Cosmos 2491 24 Jul 08:41:00 08:47:51 25° 64° (ENE) 08:54:39 435.465 / 435.565
AO-7 24 Jul 08:51:58 08:53:07 10° 322° (NW) 08:54:16 29.400- 29.500
STRAND 1 24 Jul 08:52:07 08:56:52 37° 262° (W) 09:01:40 437.568
NOAA 15 24 Jul 08:56:06 09:00:43 32° 294° (WNW) 09:05:18 137.62
CANX-2 24 Jul 08:57:16 09:00:44 24° 94° (E) 09:04:09 2200.000
LilacSat-2 24 Jul 08:57:38 09:00:45 23° 292° (WNW) 09:03:50 437.200
GOMX 1 24 Jul 09:06:55 09:11:22 35° 290° (WNW) 09:16:04 467.674
O/OREOS (USA 219) 24 Jul 09:10:36 09:14:14 24° 257° (WSW) 09:17:53 437.305
CUTE 1.7 + AOD 2 24 Jul 09:11:11 09:14:55 30° 96° (E) 09:18:37 437.475
SO-50 24 Jul 09:12:22 09:16:15 24° 112° (ESE) 09:20:09 436.795
AAUSAT CUBESAT 2 24 Jul 09:13:00 09:14:32 12° 90° (E) 09:16:03 437.432
DOVE 4 24 Jul 09:16:56 09:21:53 57° 287° (WNW) 09:27:02 437.250
BRITE-PL 24 Jul 09:27:34 09:29:11 12° 298° (WNW) 09:30:50 437.365/2234.400
UWE-3 24 Jul 09:33:41 09:36:10 14° 89° (E) 09:38:38 435.000/436.395/437.385
Cubesat XI-IV 24 Jul 09:40:24 09:44:03 19° 299° (WNW) 09:47:42 437.490
ZACube-1 24 Jul 09:43:07 09:44:20 11° 88° (E) 09:45:32 437.345
FUNcube-1 24 Jul 09:44:33 09:45:18 10° 88° (E) 09:46:02 145.935
CUBEBUG 2 24 Jul 09:47:17 09:51:26 29° 95° (E) 09:55:30 437.445
TIGRISAT 24 Jul 09:51:15 09:53:23 13° 60° (ENE) 09:55:32 435.000
CINEMA 3 24 Jul 09:53:26 09:58:28 77° 285° (WNW) 10:03:29 145.822/145.860
SEEDS 24 Jul 09:56:22 10:00:32 69° 101° (ESE) 10:04:40 437.485
PRISM 24 Jul 09:59:10 10:03:04 43° 261° (W) 10:06:58 437.425
UNISAT 6 24 Jul 10:05:11 10:08:25 19° 64° (ENE) 10:11:41 437.425
HO-68 24 Jul 10:05:37 10:12:52 89° 106° (ESE) 10:20:04 435.675
CUTE-I 24 Jul 10:06:42 10:08:30 12° 304° (NW) 10:10:18 437.470
YUBILEINY 24 Jul 10:11:48 10:19:24 35° 84° (E) 10:27:03 435.215
NOAA 18 24 Jul 10:14:15 10:16:00 11° 306° (NW) 10:17:45 137.9125
COMPASS 1 24 Jul 10:14:32 10:18:40 78° 101° (E) 10:22:47 437.405
Cosmos 2504 24 Jul 10:18:07 10:19:46 11° 71° (ENE) 10:21:26 435.465 / 435.565
Oscar 11 24 Jul 10:29:01 10:32:59 34° 97° (E) 10:36:54 145.826/435.025
RS-15 24 Jul 10:30:27 10:41:31 47° 320° (NW) 10:53:10 29.354- 29.394
CANX-2 24 Jul 10:32:54 10:36:34 29° 291° (WNW) 10:40:13 2200.000
Cosmos 2491 24 Jul 10:36:53 10:45:37 76° 266° (W) 10:54:21 435.465 / 435.565
ANTELSAT 24 Jul 10:42:26 10:46:46 42° 71° (ENE) 10:51:12 437.575/2403.000
AAUSAT CUBESAT 2 24 Jul 10:46:20 10:50:23 57° 286° (WNW) 10:54:25 437.432
CUTE 1.7 + AOD 2 24 Jul 10:47:13 10:50:38 24° 292° (WNW) 10:54:00 437.475
SO-50 24 Jul 10:51:47 10:56:29 46° 310° (NW) 11:01:10 436.795
M-CUBED/EXP-1 PRIME 24 Jul 11:02:01 11:05:56 26° 100° (E) 11:09:51 437.505
UWE-3 24 Jul 11:08:27 11:13:02 59° 286° (WNW) 11:17:30 435.000/436.395/437.385
QB50P2 24 Jul 11:10:28 11:12:49 15° 63° (ENE) 11:15:11 145.880/145.840
POLYITAN 1 24 Jul 11:13:02 11:15:28 15° 63° (ENE) 11:17:54 437.675
ZACube-1 24 Jul 11:16:36 11:21:09 73° 284° (WNW) 11:25:34 437.345
FUNcube-1 24 Jul 11:17:34 11:22:06 76° 283° (WNW) 11:26:31 145.935
CUBEBUG 2 24 Jul 11:23:51 11:28:00 30° 292° (WNW) 11:32:04 437.445
HUMSAT D 24 Jul 11:24:47 11:28:29 29° 96° (E) 11:32:07 437.325/437.525
TIGRISAT 24 Jul 11:24:50 11:29:25 75° 259° (W) 11:34:07 435.000
AUBIESAT-1 24 Jul 11:30:44 11:35:07 41° 103° (ESE) 11:39:30 437.475
CINEMA 3 24 Jul 11:33:44 11:34:44 11° 302° (WNW) 11:35:43 145.822/145.860
SEEDS 24 Jul 11:34:16 11:35:40 11° 298° (WNW) 11:37:04 437.485
DELFI C3 24 Jul 11:36:56 11:40:54 89° 103° (ESE) 11:44:50 145.870
UNISAT 6 24 Jul 11:40:17 11:44:44 49° 261° (W) 11:49:17 437.425
COMPASS 1 24 Jul 11:53:10 11:53:36 10° 299° (WNW) 11:54:03 437.405
HO-68 24 Jul 11:54:47 11:59:40 20° 306° (NW) 12:04:32 435.675
NANOSAT C BR1 24 Jul 11:57:32 12:01:29 39° 71° (ENE) 12:05:28 145.865
Cosmos 2504 24 Jul 12:02:37 12:11:12 59° 91° (E) 12:19:51 435.465 / 435.565
DUCHIFAT 1 24 Jul 12:03:24 12:07:23 43° 72° (ENE) 12:11:25 145.980
Oscar 11 24 Jul 12:05:34 12:08:55 22° 293° (WNW) 12:12:14 145.826/435.025
YUBILEINY 24 Jul 12:07:16 12:15:48 54° 284° (WNW) 12:24:26 435.215
QB50P1 24 Jul 12:17:42 12:21:54 71° 74° (ENE) 12:26:10 145.935-145.965
ANTELSAT 24 Jul 12:20:15 12:23:39 20° 268° (W) 12:27:07 437.575/2403.000
POPSAT HIP 1 24 Jul 12:23:48 12:28:02 81° 76° (ENE) 12:32:19 437.405
AISAT 24 Jul 12:24:17 12:26:38 14° 91° (E) 12:28:59 437.250
BUGSAT 1 24 Jul 12:31:49 12:35:36 38° 71° (ENE) 12:39:27 437.445
DX 1 24 Jul 12:36:02 12:37:54 12° 91° (E) 12:39:46 434.975-435.025
M-CUBED/EXP-1 PRIME 24 Jul 12:36:11 12:40:27 37° 296° (WNW) 12:44:47 437.505
Cosmos 2491 24 Jul 12:36:41 12:40:52 14° 286° (WNW) 12:45:04 435.465 / 435.565
SO-50 24 Jul 12:37:01 12:38:10 11° 330° (NNW) 12:39:18 436.795
QB50P2 24 Jul 12:44:00 12:48:10 55° 260° (W) 12:52:23 145.880/145.840
ESTCUBE 1 24 Jul 12:44:15 12:48:25 37° 98° (E) 12:52:34 437.505/2401.250
POLYITAN 1 24 Jul 12:46:39 12:50:48 54° 260° (W) 12:55:01 437.675
JAS-2 24 Jul 12:46:50 12:52:43 48° 71° (ENE) 12:58:01 435.910
RS-15 24 Jul 12:48:43 12:58:12 26° 353° (N) 13:07:55 29.354- 29.394
UKube-1 24 Jul 12:55:13 12:57:54 16° 92° (E) 13:00:36 .
HUMSAT D 24 Jul 13:00:33 13:03:59 24° 293° (WNW) 13:07:21 437.325/437.525
AUBIESAT-1 24 Jul 13:05:38 13:09:19 24° 299° (WNW) 13:13:01 437.475
VELOX 1 24 Jul 13:14:39 13:18:56 45° 99° (E) 13:23:12 145.980
CUBEBUG 1 24 Jul 13:24:21 13:28:45 68° 102° (ESE) 13:33:07 437.445
SPROUT 24 Jul 13:33:55 13:37:53 35° 97° (E) 13:41:50 437.525
NANOSAT C BR1 24 Jul 13:34:26 13:37:22 18° 267° (W) 13:40:19 145.865
DUCHIFAT 1 24 Jul 13:40:34 13:43:17 17° 268° (W) 13:46:02 145.980
Oscar 19 24 Jul 13:43:49 13:48:36 42° 69° (ENE) 13:53:25 437.125/150
50 SAT 24 Jul 13:52:10 13:55:41 52° 287° (WNW) 13:59:11 437.505
Cosmos 2504 24 Jul 13:57:13 14:05:01 34° 291° (WNW) 14:12:52 435.465 / 435.565
QB50P1 24 Jul 13:57:41 13:58:10 10° 271° (W) 13:58:39 145.935-145.965
AISAT 24 Jul 13:59:05 14:03:28 57° 287° (WNW) 14:07:50 437.250
BUGSAT 1 24 Jul 14:08:24 14:11:09 17° 267° (W) 14:13:55 437.445
DX 1 24 Jul 14:10:09 14:14:29 62° 286° (WNW) 14:18:48 434.975-435.025
AIST 1 24 Jul 14:12:48 14:16:26 28° 90° (E) 14:20:06
YUBILEINY 24 Jul 14:13:26 14:15:04 11° 309° (NW) 14:16:43 435.215
AO-7 24 Jul 14:13:29 14:18:17 17° 46° (NE) 14:23:04 29.400- 29.500
ESTCUBE 1 24 Jul 14:21:33 14:25:00 22° 294° (WNW) 14:28:27 437.505/2401.250
UKube-1 24 Jul 14:30:02 14:34:12 47° 289° (WNW) 14:38:21 .
JAS-2 24 Jul 14:32:56 14:37:58 25° 265° (W) 14:42:35 435.910
Gurwin Techsat 1B 24 Jul 14:38:06 14:43:19 61° 72° (ENE) 14:48:35 435.225
TISAT 1 24 Jul 14:40:56 14:45:02 44° 99° (E) 14:49:06 437.305
AO-85 24 Jul 14:46:20 14:50:37 25° 112° (ESE) 14:54:48 145.980
SWISSCUBE 24 Jul 14:48:43 14:50:24 12° 89° (E) 14:52:04 437.505
VELOX 1 24 Jul 14:52:00 14:55:04 19° 296° (WNW) 14:58:08 145.980
CUBEBUG 1 24 Jul 15:02:30 15:04:29 13° 298° (WNW) 15:06:26 437.445
RS-15 24 Jul 15:05:01 15:15:52 34° 28° (NNE) 15:26:43 29.354- 29.394
BEESAT 24 Jul 15:09:11 15:12:23 18° 92° (E) 15:15:34 436.000
SPROUT 24 Jul 15:10:17 15:13:38 22° 294° (WNW) 15:16:57 437.525
ITAMSAT 1 24 Jul 15:11:05 15:16:00 42° 69° (ENE) 15:20:55 435.822/435.867
Cosmos 2499 24 Jul 15:17:04 15:21:09 14° 74° (ENE) 15:25:11 435.465 / 435.565
CUSAT 1 24 Jul 15:23:47 15:25:47 17° 76° (ENE) 15:27:59 437.405
Oscar 19 24 Jul 15:23:59 15:28:04 24° 266° (W) 15:32:11 437.125/150
ITUPSAT 1 24 Jul 15:29:32 15:33:36 27° 95° (E) 15:37:39 437.325
AIST 1 24 Jul 15:50:36 15:54:01 23° 287° (WNW) 15:57:28
AO-7 24 Jul 16:01:16 16:09:31 67° 66° (ENE) 16:17:48 29.400- 29.500
GONETS M04 24 Jul 16:14:38 16:22:48 48° 88° (E) 16:31:01
TISAT 1 24 Jul 16:17:31 16:20:21 18° 296° (WNW) 16:23:10 437.305
MOZHAYETS 4 24 Jul 16:18:58 16:20:20 11° 88° (E) 16:21:41
Gurwin Techsat 1B 24 Jul 16:20:12 16:23:41 18° 269° (W) 16:27:12 435.225
SWISSCUBE 24 Jul 16:23:57 16:28:44 75° 285° (WNW) 16:33:27 437.505
AO-85 24 Jul 16:25:37 16:30:52 52° 308° (NW) 16:35:52 145.980
HORYU 2 24 Jul 16:29:48 16:32:05 14° 61° (ENE) 16:34:22 437.375
BEESAT 24 Jul 16:45:50 16:50:27 50° 289° (WNW) 16:55:02 436.000
ITAMSAT 1 24 Jul 16:51:21 16:55:36 25° 266° (W) 16:59:52 435.822/435.867
STARS 24 Jul 16:53:52 16:55:32 12° 90° (E) 16:57:11 437.465
DANDE 24 Jul 16:59:13 17:01:49 73° 262° (W) 17:04:30 436.750
Cosmos 2499 24 Jul 17:03:53 17:12:42 72° 93° (E) 17:21:24 435.465 / 435.565
CUSAT 1 24 Jul 17:05:56 17:07:40 15° 265° (W) 17:09:33 437.405
ITUPSAT 1 24 Jul 17:07:11 17:11:27 33° 292° (WNW) 17:15:40 437.325
RS-15 24 Jul 17:18:03 17:30:31 83° 56° (NE) 17:42:47 29.354- 29.394
KKS-1 24 Jul 17:40:54 17:45:24 77° 102° (ESE) 17:49:53 437.445
SO-50 24 Jul 17:42:31 17:46:33 28° 44° (NE) 17:50:29 436.795
Cubesat XI-IV 24 Jul 17:44:35 17:47:48 16° 59° (ENE) 17:51:00 437.490
MOZHAYETS 4 24 Jul 17:53:26 17:58:01 73° 284° (WNW) 18:02:33
AO-7 24 Jul 17:55:55 18:02:49 28° 265° (W) 18:09:48 29.400- 29.500
HORYU 2 24 Jul 18:03:38 18:08:05 66° 258° (WSW) 18:12:35 437.375
LilacSat-2 24 Jul 18:06:47 18:09:07 16° 65° (ENE) 18:11:29 437.200
CUTE-I 24 Jul 18:07:52 18:12:11 25° 64° (ENE) 18:16:32 437.470
AO-85 24 Jul 18:10:18 18:12:26 12° 328° (NNW) 18:14:30 145.980
GONETS M04 24 Jul 18:11:50 18:19:45 39° 289° (WNW) 18:27:47
NOAA 18 24 Jul 18:18:07 18:22:59 33° 65° (ENE) 18:27:53 137.9125
STARS 24 Jul 18:27:54 18:32:20 67° 286° (WNW) 18:36:44 437.465
NOAA 15 24 Jul 18:36:52 18:42:00 59° 71° (ENE) 18:47:10 137.62
GOMX 1 24 Jul 18:38:43 18:42:14 27° 68° (ENE) 18:45:52 467.674
DOVE 4 24 Jul 18:47:38 18:50:19 16° 63° (ENE) 18:53:06 437.250
HO-68 24 Jul 18:51:10 18:54:58 15° 50° (NE) 18:58:46 435.675
BRITE-PL 24 Jul 18:58:50 19:03:01 76° 258° (WSW) 19:07:11 437.365/2234.400
Cosmos 2499 24 Jul 18:59:16 19:06:33 28° 293° (WNW) 19:13:46 435.465 / 435.565
CUBESAT XI-V 24 Jul 19:04:36 19:09:14 77° 104° (ESE) 19:13:51 437.345
PHONESAT 2.4 24 Jul 19:11:37 19:13:56 19° 156° (SSE) 19:16:15 2401.200-2431.200
KKS-1 24 Jul 19:19:37 19:21:20 12° 300° (WNW) 19:23:03 437.445
CINEMA 3 24 Jul 19:21:48 19:23:33 12° 59° (ENE) 19:25:19 145.822/145.860
Cubesat XI-IV 24 Jul 19:21:51 19:27:13 76° 257° (WSW) 19:32:38 437.490
SO-50 24 Jul 19:22:50 19:27:09 39° 244° (WSW) 19:31:19 436.795
RS-15 24 Jul 19:31:50 19:41:41 30° 258° (WSW) 19:51:26 29.354- 29.394
LilacSat-2 24 Jul 19:39:25 19:43:05 41° 262° (W) 19:46:48 437.200
PCSat 24 Jul 19:44:28 19:47:20 15° 103° (ESE) 19:50:13 145.827
CUTE-I 24 Jul 19:46:50 19:51:58 45° 261° (W) 19:57:08 437.470
CANX-2 24 Jul 19:51:00 19:54:09 20° 66° (ENE) 19:57:17 2200.000
NOAA 18 24 Jul 19:58:31 20:03:33 36° 262° (W) 20:08:39 137.9125
CUTE 1.7 + AOD 2 24 Jul 20:04:38 20:08:06 24° 68° (ENE) 20:11:34 437.475
BEESAT 3 24 Jul 20:13:33 20:17:22 55° 120° (ESE) 20:21:15 437.485
BEESAT 2 24 Jul 20:14:16 20:17:42 29° 115° (ESE) 20:21:12 435.950
GOMX 1 24 Jul 20:16:54 20:20:20 25° 266° (W) 20:23:51 467.674
NOAA 15 24 Jul 20:18:40 20:22:09 18° 268° (W) 20:25:41 137.62
YUBILEINY 24 Jul 20:21:10 20:26:46 18° 59° (ENE) 20:32:18 435.215
DOVE 4 24 Jul 20:23:32 20:27:36 48° 261° (W) 20:31:55 437.250
UWE-3 24 Jul 20:31:46 20:34:05 14° 61° (ENE) 20:36:25 435.000/436.395/437.385
HO-68 24 Jul 20:34:19 20:41:27 71° 70° (ENE) 20:48:37 435.675
ZACube-1 24 Jul 20:40:10 20:41:20 11° 60° (ENE) 20:42:30 437.345
FUNcube-1 24 Jul 20:41:18 20:42:03 10° 59° (ENE) 20:42:48 145.935
CUBESAT XI-V 24 Jul 20:44:07 20:45:59 12° 299° (WNW) 20:47:50 437.345
CUBEBUG 2 24 Jul 20:45:58 20:49:46 27° 67° (ENE) 20:53:41 437.445
PHONESAT 2.4 24 Jul 20:47:06 20:50:05 50° 172° (S) 20:53:06 2401.200-2431.200
SEEDS 24 Jul 20:48:23 20:52:29 51° 73° (ENE) 20:56:36 437.485
CINEMA 3 24 Jul 20:55:30 20:59:56 79° 256° (WSW) 21:04:39 145.822/145.860
STRAND 1 24 Jul 21:01:21 21:06:29 70° 102° (ESE) 21:11:33 437.568
COMPASS 1 24 Jul 21:05:33 21:09:39 55° 74° (ENE) 21:13:45 437.405
Oscar 11 24 Jul 21:24:24 21:28:10 29° 69° (ENE) 21:31:57 145.826/435.025
PCSat 24 Jul 21:24:36 21:30:01 79° 301° (WNW) 21:35:29 145.827
CANX-2 24 Jul 21:25:45 21:29:45 38° 263° (W) 21:33:46 2200.000
AAUSAT CUBESAT 2 24 Jul 21:36:39 21:40:50 83° 258° (WSW) 21:45:01 437.432
CUTE 1.7 + AOD 2 24 Jul 21:40:01 21:43:48 30° 264° (W) 21:47:37 437.475
PRISM 24 Jul 21:40:14 21:43:29 22° 95° (E) 21:46:43 437.425
O/OREOS (USA 219) 24 Jul 21:43:59 21:47:59 33° 105° (ESE) 21:52:01 437.305
Cosmos 2491 24 Jul 21:44:16 21:51:03 26° 81° (E) 21:57:50 435.465 / 435.565
M-CUBED/EXP-1 PRIME 24 Jul 21:49:25 21:52:40 29° 63° (ENE) 21:56:11 437.505
AIST 2 24 Jul 21:52:06 21:54:40 16° 110° (ESE) 21:57:16 435.215
BEESAT 2 24 Jul 21:52:06 21:55:31 27° 313° (NW) 21:58:58 435.950
BEESAT 3 24 Jul 21:52:43 21:55:23 17° 318° (NW) 21:58:04 437.485
Cosmos 2504 24 Jul 21:56:06 22:02:10 22° 62° (ENE) 22:07:55 435.465 / 435.565
UWE-3 24 Jul 22:05:24 22:09:55 69° 259° (W) 22:14:34 435.000/436.395/437.385
ZACube-1 24 Jul 22:12:21 22:16:52 88° 257° (WSW) 22:21:29 437.345
FUNcube-1 24 Jul 22:13:01 22:17:31 89° 77° (ENE) 22:22:08 145.935
ISS 24 Jul 22:14:28 22:15:39 12° 130° (SE) 22:16:50 145.825
YUBILEINY 24 Jul 22:16:13 22:25:07 81° 81° (E) 22:33:57 435.215
HUMSAT D 24 Jul 22:16:43 22:20:10 24° 67° (ENE) 22:23:38 437.325/437.525
AUBIESAT-1 24 Jul 22:17:31 22:21:09 50° 67° (ENE) 22:25:05 437.475
CUBEBUG 2 24 Jul 22:22:10 22:26:15 32° 264° (W) 22:30:28 437.445
DELFI C3 24 Jul 22:23:08 22:27:02 54° 74° (ENE) 22:30:55 145.870
PHONESAT 2.4 24 Jul 22:23:26 22:26:27 51° 188° (S) 22:29:27 2401.200-2431.200
HO-68 24 Jul 22:24:24 22:29:45 22° 268° (W) 22:35:09 435.675
SEEDS 24 Jul 22:26:11 22:28:28 14° 269° (W) 22:30:46 437.485
STRAND 1 24 Jul 22:42:01 22:45:04 16° 300° (WNW) 22:48:06 437.568
COMPASS 1 24 Jul 22:43:37 22:45:32 13° 270° (W) 22:47:27 437.405
Oscar 11 24 Jul 23:00:38 23:04:16 26° 265° (W) 23:07:55 145.826/435.025
PCSat 24 Jul 23:11:02 23:14:19 16° 321° (NW) 23:17:37 145.827
PRISM 24 Jul 23:15:13 23:18:49 30° 291° (WNW) 23:22:23 437.425
TIGRISAT 24 Jul 23:16:25 23:20:05 22° 93° (E) 23:23:40 435.000
AO-85 24 Jul 23:17:20 23:20:58 23° 42° (NE) 23:24:23 145.980
AISAT 24 Jul 23:22:46 23:25:10 15° 62° (ENE) 23:27:35 437.250
O/OREOS (USA 219) 24 Jul 23:23:44 23:27:26 25° 303° (WNW) 23:31:09 437.305
M-CUBED/EXP-1 PRIME 24 Jul 23:24:25 23:27:16 21° 262° (W) 23:30:18 437.505
AIST 2 24 Jul 23:28:46 23:32:45 50° 307° (NW) 23:36:48 435.215
UNISAT 6 24 Jul 23:31:26 23:35:42 34° 96° (E) 23:39:50 437.425
DX 1 24 Jul 23:32:40 23:34:40 13° 61° (ENE) 23:36:39 434.975-435.025
Cosmos 2491 24 Jul 23:38:27 23:47:06 68° 281° (W) 23:55:49 435.465 / 435.565
ESTCUBE 1 24 Jul 23:44:19 23:48:27 37° 70° (ENE) 23:52:36 437.505/2401.250
Cosmos 2504 24 Jul 23:48:21 23:56:40 80° 264° (W) 00:04:18 435.465 / 435.565
ISS 24 Jul 23:48:22 23:51:37 86° 331° (NNW) 23:54:53 145.825
UKube-1 24 Jul 23:50:50 23:53:27 16° 63° (ENE) 23:56:04 .
HUMSAT D 24 Jul 23:51:47 23:55:38 32° 264° (W) 23:59:31 437.325/437.525
AUBIESAT-1 24 Jul 23:54:20 23:56:02 13° 266° (W) 23:57:46 437.475
PHONESAT 2.4 25 Jul 00:00:15 00:02:37 20° 204° (SSW) 00:04:59 2401.200-2431.200
DELFI C3 25 Jul 00:00:43 00:02:12 12° 270° (W) 00:03:41 145.870
QB50P1 25 Jul 00:04:12 00:05:22 11° 89° (E) 00:06:32 145.935-145.965
POPSAT HIP 1 25 Jul 00:09:42 00:11:37 13° 90° (E) 00:13:32 437.405
ANTELSAT 25 Jul 00:09:45 00:14:27 85° 102° (ESE) 00:19:02 437.575/2403.000
VELOX 1 25 Jul 00:12:30 00:16:38 43° 71° (ENE) 00:20:48 145.980
YUBILEINY 25 Jul 00:14:38 00:20:50 22° 282° (WNW) 00:27:00 435.215
CUBEBUG 1 25 Jul 00:20:46 00:24:59 60° 74° (ENE) 00:29:16 437.445
SPROUT 25 Jul 00:28:11 00:31:52 29° 69° (ENE) 00:35:35 437.525
QB50P2 25 Jul 00:28:43 00:32:07 22° 94° (E) 00:35:29 145.880/145.840
50 SAT 25 Jul 00:29:52 00:33:32 71° 75° (ENE) 00:37:11 437.505
POLYITAN 1 25 Jul 00:31:20 00:34:46 23° 94° (E) 00:38:10 437.675
TIGRISAT 25 Jul 00:52:34 00:56:53 38° 290° (WNW) 01:01:06 435.000
AISAT 25 Jul 00:56:51 01:01:09 59° 258° (WSW) 01:05:31 437.250
AO-85 25 Jul 00:57:29 01:01:38 42° 244° (WSW) 01:05:28 145.980
DX 1 25 Jul 01:06:01 01:10:18 66° 259° (WSW) 01:14:38 434.975-435.025
UNISAT 6 25 Jul 01:08:24 01:12:14 26° 293° (WNW) 01:16:00 437.425
NANOSAT C BR1 25 Jul 01:16:27 01:20:44 67° 102° (ESE) 01:24:58 145.865
ESTCUBE 1 25 Jul 01:21:56 01:25:22 21° 266° (W) 01:28:49 437.505/2401.250
DUCHIFAT 1 25 Jul 01:22:03 01:26:20 73° 101° (E) 01:30:35 145.980
UKube-1 25 Jul 01:24:53 01:29:04 51° 260° (W) 01:33:17 .
ISS 25 Jul 01:25:48 01:28:25 22° 345° (NNW) 01:31:02 145.825
TISAT 1 25 Jul 01:33:11 01:37:00 36° 70° (ENE) 01:40:52 437.305
QB50P1 25 Jul 01:37:19 01:41:36 67° 285° (WNW) 01:45:50 145.935-145.965
JAS-2 25 Jul 01:39:18 01:44:07 35° 98° (E) 01:49:13 435.910
Cosmos 2491 25 Jul 01:41:38 01:45:51 14° 304° (NW) 01:50:05 435.465 / 435.565
POPSAT HIP 1 25 Jul 01:43:33 01:47:47 58° 286° (WNW) 01:51:59 437.405
Cosmos 2504 25 Jul 01:44:33 01:48:27 14° 286° (WNW) 01:52:14 435.465 / 435.565
BUGSAT 1 25 Jul 01:47:40 01:51:54 62° 101° (E) 01:56:06 437.445
ANTELSAT 25 Jul 01:48:50 01:50:26 12° 301° (WNW) 01:52:01 437.575/2403.000
VELOX 1 25 Jul 01:50:21 01:53:19 18° 267° (W) 01:56:18 145.980
SWISSCUBE 25 Jul 01:55:22 01:58:21 17° 62° (ENE) 02:01:19 437.505
AIST 1 25 Jul 01:55:34 01:59:55 88° 82° (E) 02:04:17
Oscar 19 25 Jul 01:56:04 01:58:40 14° 90° (E) 02:01:15 437.125/150
CUBEBUG 1 25 Jul 01:59:52 02:01:40 12° 270° (W) 02:03:30 437.445
QB50P2 25 Jul 02:04:06 02:07:58 33° 291° (WNW) 02:11:48 145.880/145.840
SPROUT 25 Jul 02:04:16 02:07:48 25° 265° (W) 02:11:22 437.525
POLYITAN 1 25 Jul 02:06:46 02:10:37 32° 291° (WNW) 02:14:25 437.675
BEESAT 25 Jul 02:16:07 02:19:52 23° 65° (ENE) 02:23:38 436.000
GONETS M04 25 Jul 02:24:05 02:31:02 25° 64° (ENE) 02:37:58
ITUPSAT 1 25 Jul 02:36:45 02:41:07 35° 68° (ENE) 02:45:28 437.325
NANOSAT C BR1 25 Jul 02:54:06 02:55:53 12° 298° (WNW) 02:57:40 145.865
Gurwin Techsat 1B 25 Jul 02:54:16 02:58:25 23° 93° (E) 03:02:32 435.225
Cosmos 2499 25 Jul 02:56:04 03:02:25 25° 65° (ENE) 03:08:23 435.465 / 435.565
DUCHIFAT 1 25 Jul 02:59:58 03:01:25 12° 299° (WNW) 03:02:53 145.980
ISS 25 Jul 03:03:27 03:05:42 17° 5° (N) 03:07:56 145.825
TISAT 1 25 Jul 03:09:42 03:12:46 20° 267° (W) 03:15:52 437.305
MOZHAYETS 4 25 Jul 03:21:26 03:23:36 13° 61° (ENE) 03:25:48
JAS-2 25 Jul 03:24:40 03:29:10 30° 293° (WNW) 03:33:53 435.910
BUGSAT 1 25 Jul 03:24:43 03:26:46 13° 298° (WNW) 03:28:48 437.445
ITAMSAT 1 25 Jul 03:24:49 03:27:22 14° 90° (E) 03:29:54 435.822/435.867
SWISSCUBE 25 Jul 03:30:54 03:35:39 61° 259° (WSW) 03:40:24 437.505
Oscar 19 25 Jul 03:33:21 03:38:31 74° 286° (WNW) 03:43:41 437.125/150
STARS 25 Jul 03:51:31 03:53:26 13° 61° (ENE) 03:55:23 437.465
BEESAT 25 Jul 03:52:54 03:57:24 40° 262° (W) 04:01:56 436.000
AO-7 25 Jul 04:03:38 04:09:15 19° 90° (E) 04:14:49 29.400- 29.500
ITUPSAT 1 25 Jul 04:14:59 04:18:59 26° 265° (W) 04:23:01 437.325
GONETS M04 25 Jul 04:19:59 04:28:46 76° 266° (W) 04:37:33
DANDE 25 Jul 04:27:20 04:30:03 14° 91° (E) 04:32:28 436.750
CUSAT 1 25 Jul 04:27:27 04:31:07 26° 96° (E) 04:34:07 437.405
PCSat 25 Jul 04:29:25 04:33:09 18° 41° (NE) 04:36:52 145.827
BEESAT 3 25 Jul 04:30:06 04:33:53 41° 51° (NE) 04:37:38 437.485
BEESAT 2 25 Jul 04:31:22 04:34:45 25° 46° (NE) 04:38:06 435.950
Gurwin Techsat 1B 25 Jul 04:33:30 04:38:36 47° 290° (WNW) 04:43:40 435.225
KKS-1 25 Jul 04:39:19 04:43:44 76° 74° (ENE) 04:48:11 437.445
ISS 25 Jul 04:39:44 04:42:48 36° 25° (NNE) 04:45:51 145.825
Cosmos 2499 25 Jul 04:48:26 04:56:18 66° 267° (W) 05:03:33 435.465 / 435.565
MOZHAYETS 4 25 Jul 04:55:33 05:00:10 73° 258° (WSW) 05:04:50
ITAMSAT 1 25 Jul 05:02:11 05:07:24 75° 285° (WNW) 05:12:33 435.822/435.867
